Home   Weather   Bremerhaven   Past weeks

Flag for Germany Past Weather in Bremerhaven, Bremen, Germany — Yesterday and Last 2 Weeks

Now
50 °F

Broken clouds.


Feels Like: 46 °F
Forecast: 36 / 50 °F
Wind: 9 mph from West

Location: Nordholz

Current Time: Apr 28, 2017 at 2:35:54 pm

Latest Report: Apr 28, 2017 at 1:20 pm


Visibility: N/A

Pressure: 29.86 "Hg

Humidity: 62%

Dew Point: 37 °F

Location of BremerhavenLocation

Past Weather in Bremerhaven — Graph

°F

Bremerhaven Temperature Yesterday

Maximum temperature yesterday: 46 °F (at 3:20 pm)
Minimum temperature yesterday: 36 °F (at 3:20 am)
Average temperature yesterday: 42 °F

High & Low Weather Summary for the Past Weeks

 TemperatureHumidityPressure
High55 °F (Apr 21, 12:20 pm)100% (Apr 21, 7:10 am)30.63 "Hg (Apr 21, 7:10 am)
Low28 °F (Apr 19, 4:20 am)39% (Apr 19, 12:20 pm)29.56 "Hg (Apr 25, 5:36 am)
Average43 °F75%30.05 "Hg
* Reported Apr 13 1:20 pm — Apr 28 1:20 pm, Bremerhaven, Weather by CustomWeather, © 2017

Note: Actual official high and low records may vary slightly from our data, if they occured in-between our weather recording intervals... More about our weather records

Advertising

Bremerhaven Weather History for the Previous 24 Hours

Scroll right to see more
 ConditionsComfort  
Time TempWeatherWind HumidityBarometerVisibility
1:20 pm
Fri, Apr 28
50 °FBroken clouds.9 mph62%29.86 "HgN/A
12:20 pm46 °FPartly sunny.7 mph76%29.89 "HgN/A
11:38 am46 °FBroken clouds.12 mph76%29.89 "HgN/A
10:20 am46 °FBroken clouds.13 mph76%29.86 "HgN/A
9:20 am46 °FBroken clouds.12 mph82%29.86 "HgN/A
8:20 am43 °FBroken clouds.9 mph93%29.86 "Hg5 mi
7:20 am43 °FPartly sunny.7 mph87%29.86 "Hg5 mi
7:04 am41 °FDrizzle. Partly sunny.7 mph93%29.86 "Hg5 mi
6:20 am41 °FDrizzle. Partly sunny.9 mph87%29.86 "Hg4 mi
5:44 am41 °FLight rain. Partly cloudy.10 mph87%29.86 "HgN/A
5:20 am41 °FLight rain. Mostly cloudy.12 mph87%29.86 "Hg5 mi
4:47 am43 °FLight rain. Mostly cloudy.12 mph81%29.86 "HgN/A
4:20 am43 °FLight rain. Mostly cloudy.12 mph81%29.86 "HgN/A
3:20 am43 °FOvercast.9 mph81%29.89 "HgN/A
2:20 am43 °FLight rain. Mostly cloudy.10 mph81%29.89 "HgN/A
1:20 am43 °FPassing clouds.13 mph81%29.89 "HgN/A
1:09 am43 °FLight rain. Passing clouds.14 mph81%29.89 "HgN/A
12:20 am45 °FLight rain. Passing clouds.13 mph76%29.89 "HgN/A
11:20 pm
Thu, Apr 27
45 °FPassing clouds.9 mph76%29.92 "HgN/A
10:20 pm45 °FPassing clouds.12 mph71%29.92 "HgN/A
9:20 pm46 °FPassing clouds.10 mph71%29.92 "HgN/A
8:50 pm46 °FLight rain. Passing clouds.10 mph71%29.92 "HgN/A
8:20 pm46 °FBroken clouds.9 mph66%29.92 "HgN/A
7:20 pm46 °FSprinkles. Broken clouds.10 mph66%29.92 "HgN/A
6:20 pm46 °FPartly sunny.14 mph66%29.92 "HgN/A
5:20 pm46 °FScattered showers. Partly sunny.14 mph66%29.92 "HgN/A
4:20 pm46 °FPartly sunny.10 mph66%29.95 "HgN/A
3:20 pm46 °FScattered showers. Broken clouds.12 mph66%29.95 "HgN/A
2:20 pm45 °FScattered showers. Scattered clouds.13 mph76%29.95 "HgN/A
Weather by CustomWeather, © 2017

See weather overviewHow to use our weather pages